Location: College Rock
(37.2713°N, 119.1740°W)
Time: 04:35:45
(UTC+00:00)

Cosmos 1023 Rocket - Pass Details

Date: 29 October 2020
Orbit: 736 x 772 km, 74.1° (Epoch: 23 November)

Event Time Altitude Azimuth Distance (km) Brightness Sun altitude
Rises 13:34:32 0° 207° (SSW) 3,159 7.5 -9.4°
Reaches altitude 10° 13:36:55 10° 211° (SSW) 2,237 6.7 -8.9°
Maximum altitude 13:41:54 58° 290° (WNW) 855 4.5 -8.0°
Drops below altitude 10° 13:46:54 10° 10° (N) 2,247 6.9 -7.0°
Sets 13:49:18 0° 14° (NNE) 3,175 7.7 -6.5°
